Year,Month,Day,Hour,Minute,Value (Times are PST for temperature in C)
2013,04,24,00,00,3.30
2013,04,24,00,01,3.30
2013,04,24,00,02,3.30
2013,04,24,00,03,3.30
2013,04,24,00,04,3.30
2013,04,24,00,05,3.30
2013,04,24,00,06,3.20
2013,04,24,00,07,3.20
2013,04,24,00,08,3.20
2013,04,24,00,09,3.20
2013,04,24,00,10,3.20
2013,04,24,00,11,3.20
2013,04,24,00,12,3.20
2013,04,24,00,13,3.20
2013,04,24,00,14,3.20
2013,04,24,00,15,3.20
2013,04,24,00,16,3.20
2013,04,24,00,17,3.20
2013,04,24,00,18,3.20
2013,04,24,00,19,3.20
2013,04,24,00,20,3.20
2013,04,24,00,21,3.20
2013,04,24,00,22,3.20
2013,04,24,00,23,3.20
2013,04,24,00,24,3.20
2013,04,24,00,25,3.20
2013,04,24,00,26,3.20
2013,04,24,00,27,3.20
2013,04,24,00,28,3.20
2013,04,24,00,29,3.10
2013,04,24,00,30,3.10
2013,04,24,00,31,3.10
2013,04,24,00,32,3.10
2013,04,24,00,33,3.10
2013,04,24,00,34,3.10
2013,04,24,00,35,3.10
2013,04,24,00,36,3.10
2013,04,24,00,37,3.10
2013,04,24,00,38,3.10
2013,04,24,00,39,3.10
2013,04,24,00,40,3.10
2013,04,24,00,41,3.00
2013,04,24,00,42,3.00
2013,04,24,00,43,3.00
2013,04,24,00,44,3.00
2013,04,24,00,45,3.00
2013,04,24,00,46,3.00
2013,04,24,00,47,3.00
2013,04,24,00,48,3.00
2013,04,24,00,49,3.00
2013,04,24,00,50,2.90
2013,04,24,00,51,2.90
2013,04,24,00,52,2.90
2013,04,24,00,53,2.90
2013,04,24,00,54,2.90
2013,04,24,00,55,2.90
2013,04,24,00,56,2.90
2013,04,24,00,57,2.90
2013,04,24,00,58,2.90
2013,04,24,00,59,2.90
2013,04,24,01,00,2.90
2013,04,24,01,01,2.90
2013,04,24,01,02,2.80
2013,04,24,01,03,2.80
2013,04,24,01,04,2.80
2013,04,24,01,05,2.80
2013,04,24,01,06,2.80
2013,04,24,01,07,2.80
2013,04,24,01,08,2.80
2013,04,24,01,09,2.80
2013,04,24,01,10,2.80
2013,04,24,01,11,2.80
2013,04,24,01,12,2.80
2013,04,24,01,13,2.80
2013,04,24,01,14,2.80
2013,04,24,01,15,2.80
2013,04,24,01,16,2.80
2013,04,24,01,17,2.70
2013,04,24,01,18,2.70
2013,04,24,01,19,2.70
2013,04,24,01,20,2.70
2013,04,24,01,21,2.70
2013,04,24,01,22,2.70
2013,04,24,01,23,2.70
2013,04,24,01,24,2.70
2013,04,24,01,25,2.70
2013,04,24,01,26,2.70
2013,04,24,01,27,2.70
2013,04,24,01,28,2.70
2013,04,24,01,29,2.70
2013,04,24,01,30,2.70
2013,04,24,01,31,2.60
2013,04,24,01,32,2.60
2013,04,24,01,33,2.60
2013,04,24,01,34,2.60
2013,04,24,01,35,2.60
2013,04,24,01,36,2.60
2013,04,24,01,37,2.60
2013,04,24,01,38,2.50
2013,04,24,01,39,2.50
2013,04,24,01,40,2.50
2013,04,24,01,41,2.50
2013,04,24,01,42,2.50
2013,04,24,01,43,2.40
2013,04,24,01,44,2.40
2013,04,24,01,45,2.40
2013,04,24,01,46,2.40
2013,04,24,01,47,2.40
2013,04,24,01,48,2.40
2013,04,24,01,49,2.40
2013,04,24,01,50,2.40
2013,04,24,01,51,2.40
2013,04,24,01,52,2.40
2013,04,24,01,53,2.30
2013,04,24,01,54,2.30
2013,04,24,01,55,2.30
2013,04,24,01,56,2.30
2013,04,24,01,57,2.30
2013,04,24,01,58,2.30
2013,04,24,01,59,2.30
2013,04,24,02,00,2.30
2013,04,24,02,01,2.30
2013,04,24,02,02,2.30
2013,04,24,02,03,2.30
2013,04,24,02,04,2.30
2013,04,24,02,05,2.30
2013,04,24,02,06,2.30
2013,04,24,02,07,2.30
2013,04,24,02,08,2.30
2013,04,24,02,09,2.30
2013,04,24,02,10,2.20
2013,04,24,02,11,2.20
2013,04,24,02,12,2.20
2013,04,24,02,13,2.20
2013,04,24,02,14,2.20
2013,04,24,02,15,2.20
2013,04,24,02,16,2.20
2013,04,24,02,17,2.20
2013,04,24,02,18,2.20
2013,04,24,02,19,2.20
2013,04,24,02,20,2.20
2013,04,24,02,21,2.20
2013,04,24,02,22,2.20
2013,04,24,02,23,2.20
2013,04,24,02,24,2.20
2013,04,24,02,25,2.20
2013,04,24,02,26,2.20
2013,04,24,02,27,2.20
2013,04,24,02,28,2.20
2013,04,24,02,29,2.20
2013,04,24,02,30,2.20
2013,04,24,02,31,2.20
2013,04,24,02,32,2.20
2013,04,24,02,33,2.20
2013,04,24,02,34,2.20
2013,04,24,02,35,2.20
2013,04,24,02,36,2.20
2013,04,24,02,37,2.20
2013,04,24,02,38,2.20
2013,04,24,02,39,2.20
2013,04,24,02,40,2.20
2013,04,24,02,41,2.10
2013,04,24,02,42,2.10
2013,04,24,02,43,2.10
2013,04,24,02,44,2.10
2013,04,24,02,45,2.10
2013,04,24,02,46,2.10
2013,04,24,02,47,2.10
2013,04,24,02,48,2.10
2013,04,24,02,49,2.10
2013,04,24,02,50,2.10
2013,04,24,02,51,2.10
2013,04,24,02,52,2.10
2013,04,24,02,53,2.10
2013,04,24,02,54,2.10
2013,04,24,02,55,2.10
2013,04,24,02,56,2.10
2013,04,24,02,57,2.00
2013,04,24,02,58,2.00
2013,04,24,02,59,2.00
2013,04,24,03,00,2.00
2013,04,24,03,01,2.00
2013,04,24,03,02,2.00
2013,04,24,03,03,2.00
2013,04,24,03,04,2.00
2013,04,24,03,05,2.00
2013,04,24,03,06,1.90
2013,04,24,03,07,1.90
2013,04,24,03,08,1.90
2013,04,24,03,09,1.90
2013,04,24,03,10,1.90
2013,04,24,03,11,1.90
2013,04,24,03,12,1.90
2013,04,24,03,13,1.90
2013,04,24,03,14,1.90
2013,04,24,03,15,1.90
2013,04,24,03,16,1.90
2013,04,24,03,17,1.90
2013,04,24,03,18,1.90
2013,04,24,03,19,1.90
2013,04,24,03,20,1.90
2013,04,24,03,21,1.90
2013,04,24,03,22,1.90
2013,04,24,03,23,1.90
2013,04,24,03,24,1.90
2013,04,24,03,25,1.90
2013,04,24,03,26,1.90
2013,04,24,03,27,1.90
2013,04,24,03,28,1.90
2013,04,24,03,29,1.90
2013,04,24,03,30,1.90
2013,04,24,03,31,1.90
2013,04,24,03,32,1.90
2013,04,24,03,33,1.90
2013,04,24,03,34,1.90
2013,04,24,03,35,1.90
2013,04,24,03,36,1.90
2013,04,24,03,37,1.80
2013,04,24,03,38,1.80
2013,04,24,03,39,1.80
2013,04,24,03,40,1.80
2013,04,24,03,41,1.80
2013,04,24,03,42,1.80
2013,04,24,03,43,1.80
2013,04,24,03,44,1.80
2013,04,24,03,45,1.80
2013,04,24,03,46,1.80
2013,04,24,03,47,1.80
2013,04,24,03,48,1.70
2013,04,24,03,49,1.70
2013,04,24,03,50,1.70
2013,04,24,03,51,1.70
2013,04,24,03,52,1.70
2013,04,24,03,53,1.70
2013,04,24,03,54,1.70
2013,04,24,03,55,1.70
2013,04,24,03,56,1.70
2013,04,24,03,57,1.70
2013,04,24,03,58,1.70
2013,04,24,03,59,1.70
2013,04,24,04,00,1.70
2013,04,24,04,01,1.70
2013,04,24,04,02,1.70
2013,04,24,04,03,1.70
2013,04,24,04,04,1.70
2013,04,24,04,05,1.70
2013,04,24,04,06,1.70
2013,04,24,04,07,1.70
2013,04,24,04,08,1.70
2013,04,24,04,09,1.70
2013,04,24,04,10,1.70
2013,04,24,04,11,1.70
2013,04,24,04,12,1.70
2013,04,24,04,13,1.60
2013,04,24,04,14,1.60
2013,04,24,04,15,1.60
2013,04,24,04,16,1.60
2013,04,24,04,17,1.60
2013,04,24,04,18,1.60
2013,04,24,04,19,1.60
2013,04,24,04,20,1.60
2013,04,24,04,21,1.60
2013,04,24,04,22,1.60
2013,04,24,04,23,1.50
2013,04,24,04,24,1.50
2013,04,24,04,25,1.50
2013,04,24,04,26,1.50
2013,04,24,04,27,1.50
2013,04,24,04,28,1.50
2013,04,24,04,29,1.40
2013,04,24,04,30,1.40
2013,04,24,04,31,1.40
2013,04,24,04,32,1.40
2013,04,24,04,33,1.40
2013,04,24,04,34,1.40
2013,04,24,04,35,1.40
2013,04,24,04,36,1.40
2013,04,24,04,37,1.40
2013,04,24,04,38,1.40
2013,04,24,04,39,1.40
2013,04,24,04,40,1.40
2013,04,24,04,41,1.40
2013,04,24,04,42,1.40
2013,04,24,04,43,1.40
2013,04,24,04,44,1.40
2013,04,24,04,45,1.40
2013,04,24,04,46,1.40
2013,04,24,04,47,1.40
2013,04,24,04,48,1.40
2013,04,24,04,49,1.40
2013,04,24,04,50,1.40
2013,04,24,04,51,1.40
2013,04,24,04,52,1.30
2013,04,24,04,53,1.40
2013,04,24,04,54,1.40
2013,04,24,04,55,1.40
2013,04,24,04,56,1.40
2013,04,24,04,57,1.30
2013,04,24,04,58,1.30
2013,04,24,04,59,1.30
2013,04,24,05,00,1.30
2013,04,24,05,01,1.30
2013,04,24,05,02,1.30
2013,04,24,05,03,1.30
2013,04,24,05,04,1.30
2013,04,24,05,05,1.30
2013,04,24,05,06,1.30
2013,04,24,05,07,1.30
2013,04,24,05,08,1.30
2013,04,24,05,09,1.30
2013,04,24,05,10,1.30
2013,04,24,05,11,1.30
2013,04,24,05,12,1.30
2013,04,24,05,13,1.30
2013,04,24,05,14,1.30
2013,04,24,05,15,1.30
2013,04,24,05,16,1.30
2013,04,24,05,17,1.30
2013,04,24,05,18,1.30
2013,04,24,05,19,1.30
2013,04,24,05,20,1.30
2013,04,24,05,21,1.30
2013,04,24,05,22,1.30
2013,04,24,05,23,1.30
2013,04,24,05,24,1.30
2013,04,24,05,25,1.30
2013,04,24,05,26,1.30
2013,04,24,05,27,1.30
2013,04,24,05,28,1.30
2013,04,24,05,29,1.30
2013,04,24,05,30,1.30
2013,04,24,05,31,1.30
2013,04,24,05,32,1.30
2013,04,24,05,33,1.30
2013,04,24,05,34,1.30
2013,04,24,05,35,1.30
2013,04,24,05,36,1.30
2013,04,24,05,37,1.30
2013,04,24,05,38,1.30
2013,04,24,05,39,1.30
2013,04,24,05,40,1.30
2013,04,24,05,41,1.30
2013,04,24,05,42,1.30
2013,04,24,05,43,1.30
2013,04,24,05,44,1.30
2013,04,24,05,45,1.30
2013,04,24,05,46,1.30
2013,04,24,05,47,1.30
2013,04,24,05,48,1.30
2013,04,24,05,49,1.30
2013,04,24,05,50,1.30
2013,04,24,05,51,1.30
2013,04,24,05,52,1.30
2013,04,24,05,53,1.30
2013,04,24,05,54,1.20
2013,04,24,05,55,1.20
2013,04,24,05,56,1.20
2013,04,24,05,57,1.20
2013,04,24,05,58,1.20
2013,04,24,05,59,1.20
2013,04,24,06,00,1.20
2013,04,24,06,01,1.20
2013,04,24,06,02,1.20
2013,04,24,06,03,1.20
2013,04,24,06,04,1.20
2013,04,24,06,05,1.20
2013,04,24,06,06,1.10
2013,04,24,06,07,1.10
2013,04,24,06,08,1.10
2013,04,24,06,09,1.10
2013,04,24,06,10,1.10
2013,04,24,06,11,1.10
2013,04,24,06,12,1.10
2013,04,24,06,13,1.10
2013,04,24,06,14,1.10
2013,04,24,06,15,1.10
2013,04,24,06,16,1.10
2013,04,24,06,17,1.10
2013,04,24,06,18,1.10
2013,04,24,06,19,1.10
2013,04,24,06,20,1.10
2013,04,24,06,21,1.10
2013,04,24,06,22,1.10
2013,04,24,06,23,1.10
2013,04,24,06,24,1.10
2013,04,24,06,25,1.10
2013,04,24,06,26,1.10
2013,04,24,06,27,1.10
2013,04,24,06,28,1.10
2013,04,24,06,29,1.10
2013,04,24,06,30,1.10
2013,04,24,06,31,1.10
2013,04,24,06,32,1.10
2013,04,24,06,33,1.10
2013,04,24,06,34,1.10
2013,04,24,06,35,1.10
2013,04,24,06,36,1.10
2013,04,24,06,37,1.10
2013,04,24,06,38,1.10
2013,04,24,06,39,1.10
2013,04,24,06,40,1.20
2013,04,24,06,41,1.20
2013,04,24,06,42,1.20
2013,04,24,06,43,1.20
2013,04,24,06,44,1.20
2013,04,24,06,45,1.20
2013,04,24,06,46,1.20
2013,04,24,06,47,1.20
2013,04,24,06,48,1.20
2013,04,24,06,49,1.20
2013,04,24,06,50,1.20
2013,04,24,06,51,1.20
2013,04,24,06,52,1.20
2013,04,24,06,53,1.20
2013,04,24,06,54,1.20
2013,04,24,06,55,1.20
2013,04,24,06,56,1.20
2013,04,24,06,57,1.20
2013,04,24,06,58,1.20
2013,04,24,06,59,1.20
2013,04,24,07,00,1.30
2013,04,24,07,01,1.30
2013,04,24,07,02,1.30
2013,04,24,07,03,1.30
2013,04,24,07,04,1.30
2013,04,24,07,05,1.30
2013,04,24,07,06,1.30
2013,04,24,07,07,1.30
2013,04,24,07,08,1.30
2013,04,24,07,09,1.30
2013,04,24,07,10,1.30
2013,04,24,07,11,1.30
2013,04,24,07,12,1.30
2013,04,24,07,13,1.30
2013,04,24,07,14,1.40
2013,04,24,07,15,1.40
2013,04,24,07,16,1.40
2013,04,24,07,17,1.40
2013,04,24,07,18,1.50
2013,04,24,07,19,1.50
2013,04,24,07,20,1.50
2013,04,24,07,21,1.60
2013,04,24,07,22,1.60
2013,04,24,07,23,1.60
2013,04,24,07,24,1.60
2013,04,24,07,25,1.70
2013,04,24,07,26,1.70
2013,04,24,07,27,1.70
2013,04,24,07,28,1.80
2013,04,24,07,29,1.80
2013,04,24,07,30,1.80
2013,04,24,07,31,1.80
2013,04,24,07,32,1.90
2013,04,24,07,33,1.90
2013,04,24,07,34,2.00
2013,04,24,07,35,2.00
2013,04,24,07,36,2.10
2013,04,24,07,37,2.10
2013,04,24,07,38,2.20
2013,04,24,07,39,2.20
2013,04,24,07,40,2.30
2013,04,24,07,41,2.30
2013,04,24,07,42,2.40
2013,04,24,07,43,2.40
2013,04,24,07,44,2.50
2013,04,24,07,45,2.50
2013,04,24,07,46,2.60
2013,04,24,07,47,2.60
2013,04,24,07,48,2.70
2013,04,24,07,49,2.70
2013,04,24,07,50,2.80
2013,04,24,07,51,2.90
2013,04,24,07,52,2.90
2013,04,24,07,53,3.00
2013,04,24,07,54,3.10
2013,04,24,07,55,3.20
2013,04,24,07,56,3.30
2013,04,24,07,57,3.40
2013,04,24,07,58,3.60
2013,04,24,07,59,3.70
2013,04,24,08,00,3.80
2013,04,24,08,01,3.90
2013,04,24,08,02,4.00
2013,04,24,08,03,4.20
2013,04,24,08,04,4.30
2013,04,24,08,05,4.50
2013,04,24,08,06,4.60
2013,04,24,08,07,4.80
2013,04,24,08,08,4.90
2013,04,24,08,09,5.10
2013,04,24,08,10,5.30
2013,04,24,08,11,5.40
2013,04,24,08,12,5.50
2013,04,24,08,13,5.60
2013,04,24,08,14,5.70
2013,04,24,08,15,5.80
2013,04,24,08,16,6.00
2013,04,24,08,17,6.10
2013,04,24,08,18,6.20
2013,04,24,08,19,6.30
2013,04,24,08,20,6.40
2013,04,24,08,21,6.50
2013,04,24,08,22,6.60
2013,04,24,08,23,6.70
2013,04,24,08,24,6.80
2013,04,24,08,25,7.00
2013,04,24,08,26,7.20
2013,04,24,08,27,7.30
2013,04,24,08,28,7.50
2013,04,24,08,29,7.60
2013,04,24,08,30,7.80
2013,04,24,08,31,8.00
2013,04,24,08,32,8.20
2013,04,24,08,33,8.40
2013,04,24,08,34,8.70
2013,04,24,08,35,8.90
2013,04,24,08,36,9.10
2013,04,24,08,37,9.30
2013,04,24,08,38,9.50
2013,04,24,08,39,9.70
2013,04,24,08,40,9.90
2013,04,24,08,41,10.10
2013,04,24,08,42,10.30
2013,04,24,08,43,10.40
2013,04,24,08,44,10.60
2013,04,24,08,45,10.70
2013,04,24,08,46,10.80
2013,04,24,08,47,11.00
2013,04,24,08,48,11.10
2013,04,24,08,49,11.20
2013,04,24,08,50,11.40
2013,04,24,08,51,11.40
2013,04,24,08,52,11.60
2013,04,24,08,53,11.70
2013,04,24,08,54,11.80
2013,04,24,08,55,11.80
2013,04,24,08,56,11.90
2013,04,24,08,57,12.00
2013,04,24,08,58,12.10
2013,04,24,08,59,12.10
2013,04,24,09,00,12.10
2013,04,24,09,01,12.10
2013,04,24,09,02,12.20
2013,04,24,09,03,12.20
2013,04,24,09,04,12.20
2013,04,24,09,05,12.30
2013,04,24,09,06,12.30
2013,04,24,09,07,12.30
2013,04,24,09,08,12.40
2013,04,24,09,09,12.40
2013,04,24,09,10,12.40
2013,04,24,09,11,12.40
2013,04,24,09,12,12.40
2013,04,24,09,13,12.50
2013,04,24,09,14,12.60
2013,04,24,09,15,12.60
2013,04,24,09,16,12.70
2013,04,24,09,17,12.70
2013,04,24,09,18,12.80
2013,04,24,09,19,12.80
2013,04,24,09,20,12.80
2013,04,24,09,21,12.90
2013,04,24,09,22,12.90
2013,04,24,09,23,12.90
2013,04,24,09,24,12.90
2013,04,24,09,25,12.90
2013,04,24,09,26,13.00
2013,04,24,09,27,13.00
2013,04,24,09,28,13.00
2013,04,24,09,29,13.10
2013,04,24,09,30,13.10
2013,04,24,09,31,13.00
2013,04,24,09,32,13.00
2013,04,24,09,33,13.00
2013,04,24,09,34,13.10
2013,04,24,09,35,13.10
2013,04,24,09,36,13.00
2013,04,24,09,37,13.00
2013,04,24,09,38,13.00
2013,04,24,09,39,12.90
2013,04,24,09,40,12.90
2013,04,24,09,41,12.90
2013,04,24,09,42,12.80
2013,04,24,09,43,12.80
2013,04,24,09,44,12.80
2013,04,24,09,45,12.80
2013,04,24,09,46,12.80
2013,04,24,09,47,12.80
2013,04,24,09,48,12.80
2013,04,24,09,49,12.80
2013,04,24,09,50,12.80
2013,04,24,09,51,12.90
2013,04,24,09,52,12.90
2013,04,24,09,53,12.90
2013,04,24,09,54,13.00
2013,04,24,09,55,13.10
2013,04,24,09,56,13.10
2013,04,24,09,57,13.20
2013,04,24,09,58,13.20
2013,04,24,09,59,13.20
2013,04,24,10,00,13.30
2013,04,24,10,01,13.30
2013,04,24,10,02,13.30
2013,04,24,10,03,13.30
2013,04,24,10,04,13.20
2013,04,24,10,05,13.20
2013,04,24,10,06,13.20
2013,04,24,10,07,13.20
2013,04,24,10,08,13.10
2013,04,24,10,09,13.10
2013,04,24,10,10,13.10
2013,04,24,10,11,13.10
2013,04,24,10,12,13.20
2013,04,24,10,13,13.20
2013,04,24,10,14,13.20
2013,04,24,10,15,13.20
2013,04,24,10,16,13.20
2013,04,24,10,17,13.30
2013,04,24,10,18,13.30
2013,04,24,10,19,13.30
2013,04,24,10,20,13.30
2013,04,24,10,21,13.30
2013,04,24,10,22,13.40
2013,04,24,10,23,13.40
2013,04,24,10,24,13.40
2013,04,24,10,25,13.40
2013,04,24,10,26,13.40
2013,04,24,10,27,13.40
2013,04,24,10,28,13.30
2013,04,24,10,29,13.30
2013,04,24,10,30,13.30
2013,04,24,10,31,13.30
2013,04,24,10,32,13.30
2013,04,24,10,33,13.30
2013,04,24,10,34,13.40
2013,04,24,10,35,13.40
2013,04,24,10,36,13.50
2013,04,24,10,37,13.60
2013,04,24,10,38,13.60
2013,04,24,10,39,13.70
2013,04,24,10,40,13.80
2013,04,24,10,41,13.80
2013,04,24,10,42,13.90
2013,04,24,10,43,13.90
2013,04,24,10,44,13.90
2013,04,24,10,45,14.00
2013,04,24,10,46,14.00
2013,04,24,10,47,14.00
2013,04,24,10,48,14.10
2013,04,24,10,49,14.10
2013,04,24,10,50,14.10
2013,04,24,10,51,14.10
2013,04,24,10,52,14.10
2013,04,24,10,53,14.10
2013,04,24,10,54,14.20
2013,04,24,10,55,14.20
2013,04,24,10,56,14.20
2013,04,24,10,57,14.10
2013,04,24,10,58,14.10
2013,04,24,10,59,14.00
2013,04,24,11,00,14.00
2013,04,24,11,01,14.10
2013,04,24,11,02,14.10
2013,04,24,11,03,14.20
2013,04,24,11,04,14.30
2013,04,24,11,05,14.30
2013,04,24,11,06,14.40
2013,04,24,11,07,14.50
2013,04,24,11,08,14.60
2013,04,24,11,09,14.70
2013,04,24,11,10,14.70
2013,04,24,11,11,14.80
2013,04,24,11,12,14.80
2013,04,24,11,13,14.70
2013,04,24,11,14,14.60
2013,04,24,11,15,14.60
2013,04,24,11,16,14.60
2013,04,24,11,17,14.60
2013,04,24,11,18,14.70
2013,04,24,11,19,14.60
2013,04,24,11,20,14.60
2013,04,24,11,21,14.60
2013,04,24,11,22,14.60
2013,04,24,11,23,14.60
2013,04,24,11,24,14.70
2013,04,24,11,25,14.80
2013,04,24,11,26,14.90
2013,04,24,11,27,15.00
2013,04,24,11,28,15.00
2013,04,24,11,29,15.00
2013,04,24,11,30,15.00
2013,04,24,11,31,15.00
2013,04,24,11,32,15.00
2013,04,24,11,33,15.00
2013,04,24,11,34,15.00
2013,04,24,11,35,15.00
2013,04,24,11,36,15.00
2013,04,24,11,37,15.00
2013,04,24,11,38,15.00
2013,04,24,11,39,15.10
2013,04,24,11,40,15.20
2013,04,24,11,41,15.10
2013,04,24,11,42,15.00
2013,04,24,11,43,15.00
2013,04,24,11,44,15.00
2013,04,24,11,45,15.00
2013,04,24,11,46,15.10
2013,04,24,11,47,15.20
2013,04,24,11,48,15.30
2013,04,24,11,49,15.40
2013,04,24,11,50,15.40
2013,04,24,11,51,15.40
2013,04,24,11,52,15.40
2013,04,24,11,53,15.40
2013,04,24,11,54,15.30
2013,04,24,11,55,15.20
2013,04,24,11,56,15.20
2013,04,24,11,57,15.20
2013,04,24,11,58,15.30
2013,04,24,11,59,15.40
2013,04,24,12,00,15.50
2013,04,24,12,01,15.50
2013,04,24,12,02,15.60
2013,04,24,12,03,15.70
2013,04,24,12,04,15.80
2013,04,24,12,05,15.80
2013,04,24,12,06,15.80
2013,04,24,12,07,15.90
2013,04,24,12,08,15.90
2013,04,24,12,09,16.00
2013,04,24,12,10,16.00
2013,04,24,12,11,16.10
2013,04,24,12,12,16.20
2013,04,24,12,13,16.20
2013,04,24,12,14,16.30
2013,04,24,12,15,16.30
2013,04,24,12,16,16.40
2013,04,24,12,17,16.40
2013,04,24,12,18,16.30
2013,04,24,12,19,16.20
2013,04,24,12,20,16.20
2013,04,24,12,21,16.20
2013,04,24,12,22,16.10
2013,04,24,12,23,15.90
2013,04,24,12,24,15.80
2013,04,24,12,25,15.70
2013,04,24,12,26,15.70
2013,04,24,12,27,15.70
2013,04,24,12,28,15.80
2013,04,24,12,29,15.70
2013,04,24,12,30,15.80
2013,04,24,12,31,15.80
2013,04,24,12,32,15.90
2013,04,24,12,33,15.80
2013,04,24,12,34,15.80
2013,04,24,12,35,15.90
2013,04,24,12,36,15.90
2013,04,24,12,37,15.90
2013,04,24,12,38,15.90
2013,04,24,12,39,15.90
2013,04,24,12,40,15.80
2013,04,24,12,41,15.90
2013,04,24,12,42,16.00
2013,04,24,12,43,16.10
2013,04,24,12,44,16.20
2013,04,24,12,45,16.20
2013,04,24,12,46,16.30
2013,04,24,12,47,16.20
2013,04,24,12,48,16.30
2013,04,24,12,49,16.30
2013,04,24,12,50,16.40
2013,04,24,12,51,16.40
2013,04,24,12,52,16.30
2013,04,24,12,53,16.30
2013,04,24,12,54,16.30
2013,04,24,12,55,16.40
2013,04,24,12,56,16.30
2013,04,24,12,57,16.30
2013,04,24,12,58,16.30
2013,04,24,12,59,16.40
2013,04,24,13,00,16.50
2013,04,24,13,01,16.60
2013,04,24,13,02,16.60
2013,04,24,13,03,16.60
2013,04,24,13,04,16.50
2013,04,24,13,05,16.50
2013,04,24,13,06,16.50
2013,04,24,13,07,16.60
2013,04,24,13,08,16.50
2013,04,24,13,09,16.40
2013,04,24,13,10,16.30
2013,04,24,13,11,16.30
2013,04,24,13,12,16.30
2013,04,24,13,13,16.40
2013,04,24,13,14,16.50
2013,04,24,13,15,16.50
2013,04,24,13,16,16.60
2013,04,24,13,17,16.60
2013,04,24,13,18,16.60
2013,04,24,13,19,16.60
2013,04,24,13,20,16.60
2013,04,24,13,21,16.60
2013,04,24,13,22,16.70
2013,04,24,13,23,16.70
2013,04,24,13,24,16.80
2013,04,24,13,25,16.80
2013,04,24,13,26,16.80
2013,04,24,13,27,16.80
2013,04,24,13,28,16.80
2013,04,24,13,29,16.80
2013,04,24,13,30,16.90
2013,04,24,13,31,16.90
2013,04,24,13,32,17.00
2013,04,24,13,33,17.10
2013,04,24,13,34,17.00
2013,04,24,13,35,17.00
2013,04,24,13,36,17.10
2013,04,24,13,37,17.10
2013,04,24,13,38,17.10
2013,04,24,13,39,17.20
2013,04,24,13,40,17.10
2013,04,24,13,41,17.10
2013,04,24,13,42,17.10
2013,04,24,13,43,17.00
2013,04,24,13,44,17.00
2013,04,24,13,45,17.10
2013,04,24,13,46,17.10
2013,04,24,13,47,17.10
2013,04,24,13,48,17.20
2013,04,24,13,49,17.20
2013,04,24,13,50,17.30
2013,04,24,13,51,17.40
2013,04,24,13,52,17.40
2013,04,24,13,53,17.50
2013,04,24,13,54,17.60
2013,04,24,13,55,17.60
2013,04,24,13,56,17.50
2013,04,24,13,57,17.30
2013,04,24,13,58,17.30
2013,04,24,13,59,17.20
2013,04,24,14,00,17.30
2013,04,24,14,01,17.20
2013,04,24,14,02,17.20
2013,04,24,14,03,17.30
2013,04,24,14,04,17.20
2013,04,24,14,05,17.20
2013,04,24,14,06,17.20
2013,04,24,14,07,17.20
2013,04,24,14,08,17.30
2013,04,24,14,09,17.30
2013,04,24,14,10,17.40
2013,04,24,14,11,17.50
2013,04,24,14,12,17.50
2013,04,24,14,13,17.60
2013,04,24,14,14,17.50
2013,04,24,14,15,17.40
2013,04,24,14,16,17.30
2013,04,24,14,17,17.20
2013,04,24,14,18,17.00
2013,04,24,14,19,16.90
2013,04,24,14,20,16.90
2013,04,24,14,21,17.00
2013,04,24,14,22,17.10
2013,04,24,14,23,17.20
2013,04,24,14,24,17.20
2013,04,24,14,25,17.20
2013,04,24,14,26,17.30
2013,04,24,14,27,17.20
2013,04,24,14,28,17.20
2013,04,24,14,29,17.10
2013,04,24,14,30,17.10
2013,04,24,14,31,17.10
2013,04,24,14,32,17.20
2013,04,24,14,33,17.30
2013,04,24,14,34,17.30
2013,04,24,14,35,17.40
2013,04,24,14,36,17.40
2013,04,24,14,37,17.40
2013,04,24,14,38,17.30
2013,04,24,14,39,17.20
2013,04,24,14,40,17.20
2013,04,24,14,41,17.20
2013,04,24,14,42,17.10
2013,04,24,14,43,17.10
2013,04,24,14,44,17.00
2013,04,24,14,45,16.80
2013,04,24,14,46,16.70
2013,04,24,14,47,16.60
2013,04,24,14,48,16.50
2013,04,24,14,49,16.50
2013,04,24,14,50,16.50
2013,04,24,14,51,16.60
2013,04,24,14,52,16.70
2013,04,24,14,53,16.70
2013,04,24,14,54,16.80
2013,04,24,14,55,16.90
2013,04,24,14,56,16.90
2013,04,24,14,57,16.90
2013,04,24,14,58,16.90
2013,04,24,14,59,16.90
2013,04,24,15,00,16.90
2013,04,24,15,01,17.00
2013,04,24,15,02,17.00
2013,04,24,15,03,17.10
2013,04,24,15,04,17.10
2013,04,24,15,05,17.20
2013,04,24,15,06,17.20
2013,04,24,15,07,17.20
2013,04,24,15,08,17.20
2013,04,24,15,09,17.20
2013,04,24,15,10,17.10
2013,04,24,15,11,17.20
2013,04,24,15,12,17.20
2013,04,24,15,13,17.20
2013,04,24,15,14,17.20
2013,04,24,15,15,17.30
2013,04,24,15,16,17.30
2013,04,24,15,17,17.40
2013,04,24,15,18,17.40
2013,04,24,15,19,17.40
2013,04,24,15,20,17.50
2013,04,24,15,21,17.60
2013,04,24,15,22,17.60
2013,04,24,15,23,17.50
2013,04,24,15,24,17.40
2013,04,24,15,25,17.30
2013,04,24,15,26,17.20
2013,04,24,15,27,17.10
2013,04,24,15,28,17.10
2013,04,24,15,29,17.10
2013,04,24,15,30,17.10
2013,04,24,15,31,17.00
2013,04,24,15,32,17.00
2013,04,24,15,33,17.00
2013,04,24,15,34,16.90
2013,04,24,15,35,16.80
2013,04,24,15,36,16.80
2013,04,24,15,37,16.80
2013,04,24,15,38,16.80
2013,04,24,15,39,16.80
2013,04,24,15,40,16.80
2013,04,24,15,41,16.70
2013,04,24,15,42,16.70
2013,04,24,15,43,16.70
2013,04,24,15,44,16.70
2013,04,24,15,45,16.80
2013,04,24,15,46,16.80
2013,04,24,15,47,16.80
2013,04,24,15,48,16.80
2013,04,24,15,49,16.80
2013,04,24,15,50,16.80
2013,04,24,15,51,16.90
2013,04,24,15,52,16.90
2013,04,24,15,53,16.90
2013,04,24,15,54,16.90
2013,04,24,15,55,16.90
2013,04,24,15,56,16.90
2013,04,24,15,57,16.90
2013,04,24,15,58,16.80
2013,04,24,15,59,16.80
2013,04,24,16,00,16.80
2013,04,24,16,01,16.80
2013,04,24,16,02,16.80
2013,04,24,16,03,16.80
2013,04,24,16,04,16.80
2013,04,24,16,05,16.90
2013,04,24,16,06,16.90
2013,04,24,16,07,16.80
2013,04,24,16,08,16.80
2013,04,24,16,09,16.70
2013,04,24,16,10,16.70
2013,04,24,16,11,16.60
2013,04,24,16,12,16.60
2013,04,24,16,13,16.60
2013,04,24,16,14,16.60
2013,04,24,16,15,16.60
2013,04,24,16,16,16.60
2013,04,24,16,17,16.60
2013,04,24,16,18,16.50
2013,04,24,16,19,16.50
2013,04,24,16,20,16.50
2013,04,24,16,21,16.40
2013,04,24,16,22,16.40
2013,04,24,16,23,16.40
2013,04,24,16,24,16.40
2013,04,24,16,25,16.40
2013,04,24,16,26,16.40
2013,04,24,16,27,16.40
2013,04,24,16,28,16.30
2013,04,24,16,29,16.30
2013,04,24,16,30,16.30
2013,04,24,16,31,16.30
2013,04,24,16,32,16.30
2013,04,24,16,33,16.30
2013,04,24,16,34,16.30
2013,04,24,16,35,16.40
2013,04,24,16,36,16.30
2013,04,24,16,37,16.30
2013,04,24,16,38,16.30
2013,04,24,16,39,16.20
2013,04,24,16,40,16.10
2013,04,24,16,41,16.10
2013,04,24,16,42,16.10
2013,04,24,16,43,16.10
2013,04,24,16,44,16.10
2013,04,24,16,45,16.00
2013,04,24,16,46,16.00
2013,04,24,16,47,16.00
2013,04,24,16,48,16.00
2013,04,24,16,49,16.00
2013,04,24,16,50,16.00
2013,04,24,16,51,15.90
2013,04,24,16,52,15.80
2013,04,24,16,53,15.80
2013,04,24,16,54,15.80
2013,04,24,16,55,15.80
2013,04,24,16,56,15.80
2013,04,24,16,57,15.80
2013,04,24,16,58,15.80
2013,04,24,16,59,15.80
2013,04,24,17,00,15.80
2013,04,24,17,01,15.80
2013,04,24,17,02,15.80
2013,04,24,17,03,15.70
2013,04,24,17,04,15.70
2013,04,24,17,05,15.60
2013,04,24,17,06,15.60
2013,04,24,17,07,15.60
2013,04,24,17,08,15.50
2013,04,24,17,09,15.40
2013,04,24,17,10,15.40
2013,04,24,17,11,15.40
2013,04,24,17,12,15.50
2013,04,24,17,13,15.50
2013,04,24,17,14,15.40
2013,04,24,17,15,15.40
2013,04,24,17,16,15.40
2013,04,24,17,17,15.40
2013,04,24,17,18,15.30
2013,04,24,17,19,15.30
2013,04,24,17,20,15.30
2013,04,24,17,21,15.30
2013,04,24,17,22,15.30
2013,04,24,17,23,15.30
2013,04,24,17,24,15.20
2013,04,24,17,25,15.20
2013,04,24,17,26,15.20
2013,04,24,17,27,15.20
2013,04,24,17,28,15.20
2013,04,24,17,29,15.20
2013,04,24,17,30,15.20
2013,04,24,17,31,15.30
2013,04,24,17,32,15.30
2013,04,24,17,33,15.20
2013,04,24,17,34,15.20
2013,04,24,17,35,15.20
2013,04,24,17,36,15.10
2013,04,24,17,37,15.00
2013,04,24,17,38,15.00
2013,04,24,17,39,15.00
2013,04,24,17,40,15.00
2013,04,24,17,41,15.00
2013,04,24,17,42,15.00